Location: Marstown
(39.5056°N, 77.0820°W)
Time: 13:01:17
(UTC-04:00)

ISS - Visible Passes

Search period start: 22 March 2019 00:00
Search period end: 01 April 2019 00:00
Orbit: 406 x 411 km, 51.6° (Epoch: 23 March)

Date Brightness Start Highest point End Pass type
(mag) Time Alt. Az. Time Alt. Az. Time Alt. Az.
22 Mar -3.1 20:46:59 10° WSW 20:50:12 54° NW 20:51:54 24° NE visible
23 Mar -3.9 19:55:51 10° SW 19:59:08 80° SE 20:02:27 10° NE visible
23 Mar -1.3 21:33:40 10° WNW 21:36:03 18° NNW 21:36:16 18° NNW visible
24 Mar -1.7 20:41:57 10° W 20:44:47 26° NNW 20:47:37 10° NNE visible
25 Mar -2.5 19:50:26 10° WSW 19:53:35 40° NNW 19:56:44 10° NE visible
25 Mar -0.9 21:29:18 10° NW 21:30:50 13° NNW 21:31:41 12° N visible
26 Mar -1.1 20:37:20 10° WNW 20:39:28 16° NNW 20:41:35 10° NNE visible
27 Mar -0.8 21:25:04 10° NNW 21:25:40 10° N 21:26:17 10° N visible
28 Mar -0.9 20:32:59 10° NNW 20:34:13 12° N 20:35:27 10° NNE visible
29 Mar -0.9 21:19:50 10° N 21:20:29 10° N 21:21:09 10° NNE visible
30 Mar -0.9 20:28:36 10° N 20:29:00 10° N 20:29:23 10° N visible
30 Mar -0.6 22:04:29 10° NNW 22:04:51 12° NNW 22:04:51 12° NNW visible
31 Mar -1.2 21:13:38 10° NNW 21:15:13 13° NNE 21:15:44 12° NNE visible
